Flag for Canada Weather past 2 weeks in Kuujjuaq, Quebec, Canada

Now
-11 °F

Light snow. Overcast.


Feels Like: -21 °F
Forecast: -28 / -9 °F
Wind: 3 mph from South

Location: Kuujjuaq

Current Time: Jan 29, 2015 at 10:09:56 PM

Latest Report: Jan 29, 2015 at 9:00 PM


Visibility: 6 mi

Pressure: 30.05 "Hg

Humidity: 70%

Dew point: -18 °F

Location of KuujjuaqLocation

Historic Weather in Kuujjuaq — Graph

°F

Kuujjuaq temperature yesterday

Maximum temperature yesterday: 7 °F (at 1:00 PM)
Minimum temperature yesterday: -9 °F (at 12:00 AM)
Average temperature yesterday: -1 °F

Past Weeks' High & Low Weather Summary

 TemperatureHumidityPressure
High7 °F (Jan 28, 1:00 PM)84% (Jan 24, 10:00 PM)30.47 "Hg (Jan 24, 10:00 PM)
Low-31 °F (Jan 19, 8:00 PM)51% (Jan 26, 12:00 PM)29.46 "Hg (Jan 25, 1:00 PM)
Average-16 °F68%29.94 "Hg
* Reported Jan 14 9:00 PM — Jan 29 9:00 PM, Kuujjuaq, Weather by CustomWeather, © 2014

Note: Actual official high and low records may vary slightly from our data, if they occured in-between our weather recording intervals... More about our weather records

Advertising

Kuujjuaq weather history for previous 24 hours

 ConditionsComfort  
Time TempWeatherWind HumidityBarometerVisibility
9:00 PM
Jan 29
-11 °FLight snow. Overcast.3 mph70%30.05 "Hg6 mi
8:00 PM-11 °FLight snow. Overcast.3 mph76%30.07 "Hg4 mi
7:00 PM-11 °FLight snow. Overcast.5 mph63%30.07 "Hg6 mi
6:00 PM-11 °FSnow flurries. Partly cloudy.3 mph63%30.07 "Hg15 mi
5:00 PM-11 °FSnow flurries. Passing clouds.8 mph63%30.07 "Hg15 mi
4:00 PM-11 °FSnow flurries. Passing clouds.6 mph63%30.07 "Hg15 mi
3:00 PM-9 °FSnow flurries. Broken clouds.9 mph58%30.06 "Hg15 mi
2:00 PM-9 °FSnow flurries. Partly sunny.6 mph58%30.05 "Hg12 mi
1:00 PM-9 °FSnow flurries. Partly sunny.14 mph58%30.04 "Hg12 mi
12:00 PM-11 °FSnow flurries. Partly sunny.15 mph58%30.03 "Hg12 mi
11:00 AM-9 °FSnow flurries. Low level haze.13 mph53%30.03 "Hg15 mi
10:00 AM-11 °FSnow flurries. Low level haze.13 mph63%30.03 "Hg12 mi
9:00 AM-11 °FSnow flurries. Low level haze.14 mph63%30.01 "Hg12 mi
8:00 AM-11 °FLight snow. Low level haze.10 mph70%29.98 "Hg15 mi
7:00 AM-9 °FLight snow. Passing clouds.13 mph64%29.96 "Hg15 mi
6:00 AM-8 °FLight snow. Overcast.10 mph64%29.94 "Hg15 mi
5:00 AM-8 °FLight snow. Overcast.16 mph64%29.93 "Hg12 mi
4:00 AM-8 °FLight snow. Overcast.14 mph70%29.92 "Hg15 mi
3:00 AM-6 °FLight snow. Passing clouds.12 mph64%29.91 "Hg15 mi
2:00 AM-6 °FLight snow. Passing clouds.16 mph64%29.90 "Hg12 mi
1:00 AM-6 °FLight snow. Overcast.9 mph64%29.89 "Hg12 mi
12:00 AM-8 °FLight snow. Overcast.9 mph70%29.88 "Hg12 mi
11:00 PM
Jan 28
-9 °FLight snow. Passing clouds.9 mph70%29.87 "Hg10 mi
10:00 PM-9 °FPassing clouds.8 mph64%29.87 "Hg15 mi
Weather by CustomWeather, © 2014

See weather overviewHow to use our weather pages